Temperature
6 7 6 5 5 4 4 5 6 7 8 9 9 9 9 8 7 6 5 4 4 4 3 3 3 3 3 3 3 3 3 3 3 3 3 3 3 3 3 3 3 4 4 4
5 5 5 5 5 5 5 5 5 6 7 9 9 8 7 7 6 5 5 4 4 3 3 3 2 2 2 2 2 2 2 3 2 2 2 2 2 2 3 3 3 3 4 4
5 6 4 5 6 6 6 6 6 6 7 8 8 8 7 6 5 4 4 3 3 3 3 2 2 2 2 2 2 2 2 2 2 2 2 2 2 2 2 3 3 3 4 4
4 4 4 7 8 7 7 7 7 7 7 7 7 6 5 4 4 4 3 3 3 3 2 2 2 2 2 2 1 1 1 1 2 2 2 2 2 2 2 2 3 3 3 4
3 4 5 7 6 6 5 6 7 6 6 6 5 5 5 4 3 3 2 2 2 2 2 1 1 1 1 1 1 1 1 1 1 1 1 1 2 2 2 2 3 3 3 4
3 3 5 7 6 5 5 5 6 5 5 5 4 4 6 4 2 2 2 2 2 2 1 1 1 1 1 1 1 0 1 1 1 1 1 1 1 1 2 2 2 3 3 4
3 3 5 6 4 3 4 6 5 4 3 3 3 4 3 2 2 2 1 1 1 1 1 1 1 1 0 0 0 0 0 0 0 0 0 1 1 1 1 2 2 2 3 4
3 3 4 4 3 4 5 4 3 3 2 2 2 2 1 1 1 1 1 1 1 0 0 0 0 -0 -0 -0 -0 -0 -0 -0 -0 0 0 1 1 1 1 1 2 2 2 3
4 5 5 3 3 3 2 2 2 2 1 1 1 1 1 0 0 0 -0 -0 -0 -0 -0 -0 -0 -1 -1 -1 -1 -1 -1 -1 -1 -0 -0 0 0 0 1 1 1 1 2 2
2 3 3 2 2 1 1 1 1 1 1 0 0 -0 -0 -0 -0 -1 -1 -1 -1 -1 -1 -1 -1 -1 -1 -1 -1 -1 -1 -1 -1 -1 -1 -0 -0 0 0 0 1 1 1 2
2 3 2 2 1 1 1 0 0 -0 -0 -1 -1 -1 -1 -1 -1 -1 -2 -2 -2 -2 -2 -2 -2 -2 -2 -2 -2 -2 -2 -2 -2 -1 -1 -1 -0 -0 -0 -0 0 1 1 2
2 2 2 2 1 0 -0 -1 -1 -1 -1 -1 -2 -2 -2 -2 -2 -2 -2 -2 -2 -2 -2 -2 -2 -2 -2 -3 -3 -3 -3 -2 -2 -2 -2 -2 -1 -1 -0 -0 0 1 1 1
1 -0 -0 -0 -1 -1 -1 -2 -2 -2 -2 -2 -2 -3 -3 -3 -3 -3 -3 -3 -3 -3 -3 -3 -3 -3 -3 -3 -3 -3 -3 -3 -3 -3 -2 -2 -2 -1 -1 -0 0 1 1 1
-2 -2 -2 -2 -2 -2 -2 -2 -3 -3 -3 -3 -3 -3 -3 -4 -4 -4 -3 -3 -3 -3 -3 -3 -4 -3 -3 -4 -4 -4 -4 -3 -3 -3 -3 -2 -2 -2 -2 -1 -1 0 1 1
-3 -3 -3 -3 -3 -3 -3 -3 -4 -4 -4 -4 -4 -4 -4 -4 -4 -4 -4 -4 -4 -4 -4 -4 -4 -4 -4 -4 -4 -4 -4 -4 -4 -3 -3 -3 -3 -2 -2 -2 -1 -1 -0 0
-4 -3 -4 -4 -4 -4 -4 -4 -4 -4 -4 -5 -5 -5 -5 -5 -5 -5 -5 -5 -5 -5 -5 -5 -5 -5 -5 -5 -5 -4 -4 -4 -4 -4 -3 -3 -3 -3 -3 -2 -2 -1 -1 -0
-5 -5 -5 -5 -5 -5 -5 -5 -5 -5 -6 -6 -6 -6 -6 -6 -6 -5 -5 -5 -5 -5 -5 -5 -5 -5 -5 -5 -5 -5 -5 -4 -4 -4 -4 -3 -3 -3 -3 -3 -2 -2 -1 -1
-5 -5 -6 -6 -6 -6 -6 -6 -6 -6 -6 -6 -6 -6 -6 -6 -6 -6 -6 -6 -6 -6 -6 -6 -6 -6 -5 -5 -5 -5 -5 -5 -4 -4 -4 -4 -3 -3 -3 -3 -2 -2 -2 -1
-6 -6 -6 -6 -6 -6 -6 -6 -6 -6 -6 -7 -7 -7 -7 -7 -7 -7 -6 -6 -7 -6 -6 -6 -6 -6 -6 -6 -6 -6 -6 -5 -5 -5 -4 -4 -4 -4 -3 -3 -3 -2 -2 -1
-6 -6 -6 -6 -6 -7 -7 -7 -7 -7 -7 -7 -7 -7 -7 -7 -7 -7 -7 -7 -7 -7 -7 -6 -6 -6 -6 -6 -6 -6 -6 -6 -5 -5 -5 -4 -4 -4 -4 -3 -3 -3 -2 -2
-7 -7 -7 -7 -7 -7 -7 -7 -7 -7 -7 -7 -8 -8 -8 -7 -7 -7 -7 -7 -7 -7 -7 -7 -7 -6 -6 -6 -6 -6 -6 -6 -6 -5 -5 -5 -4 -4 -4 -4 -4 -3 -3 -2
-7 -7 -7 -7 -7 -7 -7 -7 -8 -8 -8 -8 -8 -8 -8 -8 -8 -8 -7 -8 -7 -7 -7 -7 -7 -7 -7 -7 -7 -7 -6 -6 -6 -6 -5 -5 -5 -5 -4 -4 -4 -3 -3 -2
-8 -8 -8 -8 -8 -8 -8 -8 -8 -8 -8 -8 -8 -8 -8 -8 -8 -8 -8 -7 -8 -7 -8 -7 -7 -7 -7 -7 -7 -7 -6 -6 -6 -6 -6 -5 -5 -5 -5 -4 -4 -3 -3 -2
-8 -8 -8 -8 -8 -8 -8 -8 -8 -8 -8 -8 -8 -8 -8 -8 -8 -8 -8 -8 -8 -8 -8 -8 -7 -7 -7 -7 -7 -7 -7 -6 -6 -6 -6 -6 -5 -5 -5 -4 -4 -3 -3 -2
-8 -8 -8 -8 -9 -9 -9 -9 -8 -8 -8 -8 -8 -8 -9 -9 -9 -8 -8 -8 -8 -8 -8 -8 -7 -7 -7 -7 -7 -7 -7 -7 -6 -6 -6 -6 -5 -5 -5 -4 -4 -3 -3 -2
-9 -9 -9 -9 -9 -9 -9 -9 -9 -9 -9 -9 -9 -8 -9 -9 -8 -8 -8 -8 -8 -8 -8 -8 -8 -7 -7 -7 -7 -7 -7 -7 -6 -6 -6 -5 -5 -5 -4 -4 -3 -3 -3 -2
-9 -9 -9 -9 -9 -10 -10 -10 -10 -10 -10 -10 -9 -9 -9 -9 -8 -8 -8 -8 -8 -8 -8 -8 -8 -8 -7 -7 -7 -7 -7 -7 -6 -6 -5 -5 -5 -4 -4 -4 -3 -3 -3 -2
Wind_Speed
17 15 11 13 16 16 18 19 17 23 25 26 24 23 21 18 17 16 16 15 14 13 12 12 12 12 12 13 12 12 12 12 12 12 13 12 12 12 11 11 11 11 12 12
14 15 16 19 21 21 22 22 25 28 30 26 23 20 18 17 16 16 15 14 14 13 12 12 12 13 12 13 12 12 11 11 12 12 12 11 11 11 11 11 10 11 11 12
12 12 11 17 20 21 19 20 19 23 25 21 20 18 17 16 15 14 14 13 13 12 11 11 12 12 12 12 11 11 11 11 12 11 11 11 11 11 11 11 10 11 11 12
8 8 16 12 7 13 18 21 21 20 21 19 18 16 14 13 13 13 12 12 12 12 11 11 11 11 11 10 10 10 11 11 11 11 11 11 11 11 11 10 10 10 11 10
7 12 16 14 8 8 12 16 16 18 19 17 14 14 13 10 9 10 11 11 11 11 11 11 10 10 9 10 10 11 11 12 12 12 12 11 12 11 10 9 10 9 9 9
9 11 12 10 3 4 5 12 8 10 12 11 9 11 11 8 9 11 11 10 10 11 11 10 10 9 9 10 11 11 12 12 12 12 12 12 12 11 10 9 9 8 8 8
15 14 12 6 4 6 7 7 1 4 7 7 8 10 11 12 12 12 12 11 11 11 10 11 10 9 10 11 11 12 12 12 12 12 11 11 11 10 9 8 8 7 7 6
11 12 12 4 7 8 7 4 3 5 8 10 12 13 13 13 13 13 12 12 11 11 11 11 10 10 11 11 11 11 11 12 12 12 11 10 10 10 9 8 8 6 5 4
9 10 5 5 6 6 5 7 8 9 11 12 13 14 14 14 13 13 13 12 11 11 12 12 10 10 11 12 11 11 12 12 12 12 11 10 10 9 8 7 6 5 4 4
9 12 10 10 10 10 9 10 11 12 12 12 13 14 14 13 13 13 13 12 11 11 12 12 12 11 11 12 11 11 12 12 11 11 11 10 8 7 6 7 7 6 5 4
14 13 11 11 11 10 11 12 12 12 12 12 13 14 14 13 13 12 12 11 11 11 12 13 12 12 11 11 11 11 12 11 10 9 9 9 9 7 8 8 8 7 5 4
13 11 9 10 9 10 11 11 11 12 12 12 11 13 13 12 12 11 12 11 11 12 13 13 12 12 11 11 10 11 10 10 9 8 8 7 8 8 8 8 9 9 7 6
13 11 11 11 10 9 10 11 11 11 12 12 11 11 12 12 11 11 11 12 12 12 12 12 12 12 11 10 10 10 10 10 8 8 8 7 7 6 7 7 6 6 4 4
9 8 9 9 8 9 10 10 10 10 10 10 10 9 9 10 10 11 11 11 11 12 11 11 11 11 11 10 9 9 9 9 8 7 7 6 6 6 5 6 6 4 2 2
7 8 9 9 9 8 7 7 8 9 9 8 8 8 9 10 11 11 11 11 11 11 10 10 10 11 10 9 9 9 8 7 6 6 6 6 5 5 5 5 5 5 2 1
6 6 6 7 7 7 7 7 8 9 9 9 9 9 10 10 11 11 11 10 10 11 10 10 10 10 9 8 8 8 7 9 8 6 6 5 5 4 4 4 4 4 2 1
4 5 5 7 7 8 8 8 9 9 9 10 10 10 10 10 11 11 10 10 10 10 10 10 10 10 9 8 8 7 6 7 8 6 5 5 5 4 4 4 4 3 3 2
4 5 6 7 7 8 9 9 9 9 9 10 10 10 10 10 11 11 11 11 10 10 9 9 9 9 9 8 7 6 6 6 5 5 5 4 4 4 4 4 4 3 3 2
4 5 5 6 7 7 8 9 9 9 9 9 9 10 10 10 10 11 10 10 10 10 9 9 11 10 9 9 8 6 6 6 6 5 4 5 5 4 4 3 3 3 3 2
5 5 6 6 6 6 7 8 9 9 9 8 9 10 10 10 10 10 10 9 8 8 9 10 10 9 9 8 9 6 6 6 6 5 4 4 4 4 3 3 3 3 3 2
6 6 6 6 7 7 7 8 8 9 9 9 9 10 10 10 10 9 9 9 9 9 9 11 8 7 7 8 9 6 6 6 5 5 4 4 4 4 3 3 3 3 2 2
6 6 6 6 7 7 7 7 7 8 9 9 9 9 9 10 10 9 9 8 9 11 9 7 7 9 10 10 7 6 6 6 5 4 4 4 4 3 3 3 3 3 2 2
6 6 6 7 7 8 8 8 8 8 8 9 9 9 9 9 8 8 9 7 7 11 9 8 9 12 12 8 6 5 5 5 5 4 4 4 4 3 3 3 3 3 2 2
6 6 6 7 6 7 8 8 8 7 8 9 8 9 9 8 8 7 7 11 12 13 9 10 12 11 10 5 5 4 4 5 4 4 4 3 3 3 3 3 3 2 2 2
6 6 6 6 6 6 7 9 9 8 8 7 9 9 8 7 7 8 9 9 11 11 8 9 10 10 6 4 4 3 3 3 3 3 4 3 3 3 3 3 2 2 2 1
6 5 5 6 6 6 6 6 6 7 7 8 8 8 8 7 8 8 7 8 9 10 7 6 6 6 4 3 3 3 3 2 3 3 3 3 3 3 3 2 2 2 2 2
5 5 5 5 5 5 6 6 6 7 7 8 9 9 9 9 8 8 8 7 6 5 5 4 4 4 3 3 3 2 2 2 2 2 2 3 3 3 3 3 2 2 2 2
Wind_Direction
252 259 246 244 240 226 224 235 249 263 270 277 284 290 293 296 298 299 299 298 296 296 298 300 302 303 304 304 304 300 293 289 289 290 288 287 286 285 279 273 269 266 261 252
252 250 251 255 251 243 240 244 250 262 269 274 282 287 289 292 295 295 297 298 298 297 297 298 301 303 303 304 306 305 297 293 293 293 292 290 289 287 281 274 271 269 264 251
255 256 260 254 247 241 241 239 244 255 265 278 283 284 286 291 293 294 297 298 299 298 296 298 300 301 301 303 305 306 304 300 297 297 296 296 293 289 282 275 272 269 267 253
256 250 248 259 249 238 244 248 246 253 265 274 281 288 289 287 288 292 296 298 298 298 298 298 298 297 299 301 303 305 305 306 306 302 300 300 297 290 287 278 271 268 263 250
234 249 262 264 248 226 238 257 250 254 263 272 283 288 281 283 288 291 296 297 298 299 298 297 297 298 297 300 305 307 308 308 308 307 304 300 297 294 293 287 279 272 263 251
234 246 255 269 227 195 229 262 254 249 259 272 283 284 292 312 305 296 296 296 298 300 298 296 297 298 294 298 302 305 305 305 306 305 304 299 297 297 296 293 283 279 266 250
239 249 259 264 159 159 232 279 303 235 259 273 272 279 300 303 299 295 293 295 298 299 297 296 298 297 290 295 298 302 303 302 303 304 305 302 301 298 298 298 291 282 272 249
231 244 252 172 161 207 264 320 282 273 279 280 280 287 292 293 294 295 295 296 298 297 295 296 298 296 289 293 298 301 302 303 304 305 306 304 304 302 300 298 289 282 270 253
222 243 286 186 221 258 294 283 284 286 286 284 284 287 290 291 291 292 294 295 296 294 294 295 294 293 288 293 300 301 301 302 304 305 305 304 302 301 303 299 284 277 266 249
256 261 265 259 267 270 274 277 284 284 284 283 283 287 289 290 291 292 294 294 295 295 293 294 296 295 290 293 298 299 299 301 302 302 303 304 301 297 299 299 289 280 271 254
255 266 276 265 261 268 274 277 282 284 283 281 283 285 287 289 290 291 293 294 294 292 292 294 297 296 297 297 297 296 297 298 299 297 299 300 297 292 290 285 282 275 266 256
259 267 265 272 279 280 280 281 286 288 287 285 282 284 287 286 288 291 292 293 292 292 293 294 295 295 297 298 295 293 293 295 295 296 296 296 299 300 291 283 290 279 267 259
265 275 271 277 282 284 283 285 288 284 282 286 286 284 285 286 288 290 291 291 292 293 293 293 294 294 298 298 294 289 287 288 290 290 290 292 296 302 309 315 312 290 271 253
264 273 273 274 283 291 290 290 291 288 286 286 287 288 289 289 291 291 291 293 295 295 293 293 294 295 300 300 297 292 290 289 289 288 287 288 293 294 294 301 311 310 292 207
267 264 268 281 287 293 298 297 296 294 296 296 295 294 294 294 293 294 296 298 297 294 294 296 296 298 304 302 297 293 291 290 290 287 286 285 286 287 288 291 292 297 283 176
286 280 276 278 287 297 302 299 294 295 298 298 298 297 296 294 293 293 294 296 295 293 294 295 294 298 304 301 295 291 288 289 289 286 286 285 283 283 284 285 290 290 274 219
279 283 285 287 290 295 296 294 291 291 293 293 294 297 297 296 295 295 296 298 294 289 289 290 293 298 299 297 293 290 290 290 287 281 279 281 283 283 282 281 283 283 281 269
273 277 280 279 283 291 296 297 294 292 290 291 294 294 293 292 293 296 300 302 299 294 290 290 293 297 295 293 291 286 283 282 282 277 275 277 280 280 279 279 278 276 285 287
304 296 296 293 290 288 291 293 295 294 293 293 292 291 291 291 292 294 296 295 292 294 296 299 299 296 292 291 291 281 278 277 276 274 271 271 272 269 269 269 269 266 268 270
321 317 312 308 305 297 294 296 298 296 295 294 293 294 295 296 297 295 293 288 283 285 292 296 296 292 289 288 287 277 272 269 266 263 263 263 263 266 266 263 262 263 266 270
323 320 316 314 313 309 303 300 299 297 299 297 294 293 295 297 297 294 292 291 293 296 297 296 294 290 289 288 284 275 269 263 259 256 256 259 261 264 263 254 250 254 255 258
315 314 313 313 314 313 312 309 304 301 301 301 300 298 297 298 299 296 286 282 290 299 300 293 290 288 292 291 278 271 266 261 255 252 249 252 255 253 249 246 244 248 248 248
307 309 310 311 311 310 310 310 309 306 304 304 303 303 301 298 297 295 297 297 298 300 299 289 290 292 294 289 276 266 260 257 253 248 246 248 248 243 234 235 237 240 240 243
309 312 311 312 312 312 314 316 316 311 306 302 301 301 300 300 299 294 289 296 302 302 297 294 298 299 299 288 277 266 255 249 247 243 241 242 242 236 226 224 229 232 228 225
311 312 313 316 317 315 313 314 315 316 316 313 311 309 304 297 295 300 300 299 302 303 300 300 302 304 299 287 279 269 259 248 241 236 235 234 229 217 212 210 213 217 217 191
314 313 310 307 307 309 311 313 315 318 319 318 318 318 316 311 305 303 302 302 302 304 304 303 306 304 298 291 284 273 261 254 248 233 224 219 206 199 195 190 197 202 196 171
318 318 317 320 322 321 317 315 315 316 318 317 316 317 318 316 314 315 313 311 313 315 315 312 309 305 301 296 288 276 266 251 237 227 212 201 186 180 175 177 184 182 172 157
Height
1450 1450 1455 1455 1455 1459 1460 1453 1446 1431 1426 1420 1420 1420 1419 1418 1417 1416 1414 1411 1408 1405 1401 1398 1395 1392 1388 1384 1381 1378 1375 1371 1368 1365 1363 1359 1356 1353 1351 1348 1346 1345 1344 1345
1450 1447 1449 1447 1443 1444 1445 1444 1439 1432 1422 1417 1417 1417 1415 1414 1413 1411 1409 1406 1403 1399 1396 1393 1390 1387 1383 1379 1376 1372 1369 1366 1363 1359 1356 1353 1350 1347 1344 1342 1340 1338 1337 1338
1440 1440 1444 1436 1427 1429 1429 1427 1427 1422 1414 1412 1412 1411 1410 1410 1408 1406 1404 1401 1398 1395 1391 1389 1386 1382 1379 1375 1372 1368 1364 1361 1358 1354 1350 1347 1344 1341 1338 1336 1334 1332 1331 1331
1439 1442 1434 1413 1414 1416 1416 1415 1415 1413 1410 1410 1409 1408 1407 1406 1404 1401 1399 1397 1394 1391 1387 1384 1381 1378 1374 1371 1368 1364 1360 1357 1353 1350 1345 1342 1339 1335 1332 1330 1327 1326 1325 1326
1435 1428 1414 1408 1411 1413 1413 1407 1407 1407 1405 1406 1406 1404 1401 1400 1399 1397 1395 1393 1390 1387 1384 1380 1377 1374 1370 1367 1364 1360 1357 1353 1349 1345 1341 1337 1334 1330 1327 1324 1322 1321 1320 1321
1429 1423 1411 1399 1406 1409 1411 1404 1401 1402 1402 1403 1403 1400 1394 1395 1394 1392 1391 1388 1385 1382 1380 1376 1373 1370 1367 1363 1360 1356 1353 1349 1345 1341 1337 1333 1330 1326 1323 1321 1318 1317 1316 1317
1422 1416 1403 1401 1407 1409 1408 1398 1400 1400 1401 1401 1400 1398 1395 1393 1391 1388 1386 1383 1381 1378 1375 1372 1369 1366 1363 1359 1356 1352 1349 1345 1341 1337 1334 1330 1327 1323 1320 1317 1315 1314 1312 1313
1414 1412 1402 1400 1405 1403 1398 1399 1399 1398 1398 1398 1396 1393 1391 1389 1386 1384 1381 1378 1376 1373 1370 1367 1365 1362 1358 1355 1352 1348 1344 1341 1337 1333 1330 1327 1324 1321 1318 1315 1313 1311 1311 1311
1402 1397 1395 1398 1398 1398 1398 1398 1397 1396 1394 1393 1391 1388 1386 1384 1381 1379 1376 1373 1370 1368 1364 1362 1360 1357 1353 1350 1347 1343 1339 1336 1333 1329 1326 1323 1321 1318 1315 1313 1311 1310 1309 1309
1399 1393 1394 1395 1395 1395 1395 1394 1392 1391 1390 1388 1386 1383 1381 1378 1376 1373 1370 1368 1365 1362 1359 1356 1354 1351 1348 1345 1341 1338 1335 1332 1328 1325 1322 1320 1317 1315 1312 1310 1309 1308 1308 1307
1393 1390 1391 1390 1391 1391 1390 1389 1387 1386 1385 1383 1381 1378 1376 1373 1371 1368 1365 1362 1360 1357 1353 1350 1348 1345 1342 1339 1336 1333 1330 1327 1324 1321 1318 1316 1314 1312 1310 1308 1307 1306 1306 1307
1385 1386 1387 1385 1386 1386 1385 1384 1382 1381 1378 1377 1375 1372 1370 1367 1365 1362 1360 1357 1354 1351 1348 1345 1342 1339 1337 1334 1331 1328 1325 1322 1320 1317 1315 1312 1310 1308 1306 1305 1304 1304 1304 1305
1383 1383 1383 1382 1381 1381 1379 1378 1377 1375 1373 1371 1369 1367 1364 1362 1359 1357 1354 1351 1348 1345 1343 1340 1337 1334 1332 1329 1326 1323 1321 1318 1316 1314 1312 1310 1308 1305 1303 1302 1301 1301 1302 1302
1380 1380 1379 1378 1377 1376 1375 1373 1372 1370 1368 1366 1363 1361 1359 1356 1354 1351 1348 1345 1343 1340 1337 1334 1331 1329 1326 1324 1321 1318 1316 1314 1312 1310 1308 1306 1305 1303 1302 1300 1298 1298 1299 1300
1376 1376 1375 1374 1373 1371 1370 1368 1366 1364 1362 1360 1358 1356 1353 1351 1348 1345 1343 1340 1337 1334 1332 1329 1326 1323 1322 1319 1316 1314 1312 1310 1308 1307 1305 1304 1302 1301 1300 1298 1297 1296 1297 1298
1372 1371 1371 1370 1368 1367 1366 1364 1362 1359 1357 1355 1353 1350 1348 1346 1343 1340 1337 1335 1332 1329 1326 1324 1321 1318 1317 1314 1312 1310 1308 1306 1305 1304 1302 1301 1299 1298 1297 1296 1295 1295 1296 1296
1369 1368 1367 1366 1364 1363 1362 1360 1357 1355 1352 1350 1348 1345 1343 1340 1337 1334 1331 1329 1327 1324 1321 1319 1316 1314 1312 1310 1307 1306 1304 1302 1301 1300 1299 1298 1297 1296 1295 1295 1294 1294 1295 1296
1366 1365 1364 1363 1361 1359 1357 1355 1353 1350 1348 1345 1343 1340 1337 1335 1331 1329 1326 1324 1321 1318 1316 1313 1311 1309 1307 1305 1303 1302 1300 1299 1298 1297 1296 1296 1295 1294 1293 1293 1292 1293 1293 1295
1363 1362 1361 1359 1357 1355 1353 1351 1348 1346 1343 1341 1338 1335 1333 1330 1327 1324 1321 1319 1316 1313 1310 1308 1306 1304 1302 1301 1300 1298 1297 1296 1295 1294 1293 1293 1293 1292 1292 1291 1291 1292 1292 1293
1361 1359 1358 1356 1354 1352 1349 1346 1344 1341 1339 1336 1333 1330 1327 1324 1322 1319 1316 1314 1311 1308 1306 1303 1301 1299 1297 1296 1295 1294 1293 1292 1292 1291 1290 1290 1289 1289 1289 1289 1290 1290 1291 1292
1358 1357 1355 1353 1350 1348 1346 1343 1340 1337 1334 1332 1329 1326 1322 1319 1317 1315 1311 1308 1306 1304 1301 1299 1297 1295 1293 1292 1290 1289 1289 1288 1288 1288 1287 1287 1287 1286 1287 1287 1288 1289 1290 1291
1356 1354 1352 1350 1347 1345 1342 1340 1337 1334 1331 1328 1325 1322 1318 1315 1312 1309 1307 1304 1301 1299 1297 1294 1292 1290 1289 1287 1286 1285 1284 1284 1284 1284 1284 1284 1284 1284 1285 1286 1287 1288 1289 1290
1354 1352 1349 1347 1344 1342 1339 1337 1334 1330 1327 1324 1321 1318 1314 1311 1308 1305 1301 1299 1297 1294 1292 1290 1288 1286 1284 1283 1282 1281 1281 1281 1281 1281 1281 1281 1282 1283 1283 1284 1285 1286 1288 1290
1352 1349 1347 1344 1342 1339 1336 1333 1330 1327 1324 1321 1317 1314 1311 1307 1303 1301 1298 1295 1292 1290 1287 1285 1283 1282 1280 1279 1278 1277 1277 1277 1277 1277 1278 1279 1279 1280 1281 1282 1284 1285 1287 1289
1349 1347 1344 1342 1339 1336 1333 1330 1327 1323 1320 1316 1313 1310 1307 1304 1300 1296 1294 1290 1288 1285 1283 1280 1279 1277 1276 1275 1274 1273 1273 1273 1274 1275 1275 1276 1277 1278 1280 1281 1283 1285 1286 1288
1347 1345 1342 1340 1337 1334 1331 1328 1324 1320 1317 1313 1309 1306 1303 1300 1296 1293 1290 1287 1284 1282 1279 1277 1275 1273 1272 1271 1271 1270 1271 1271 1272 1272 1273 1274 1276 1277 1279 1281 1283 1284 1286 1288
1345 1342 1340 1337 1334 1332 1329 1325 1322 1318 1314 1310 1306 1303 1300 1296 1293 1290 1287 1284 1281 1278 1276 1274 1272 1270 1269 1269 1268 1268 1268 1269 1270 1271 1272 1274 1275 1277 1279 1280 1282 1284 1286 1288